Time,TemperatureF,DewpointF,PressureIn,WindDirection,WindDirectionDegrees,WindSpeedMPH,WindSpeedGustMPH,Humidity,HourlyPrecipIn,Conditions,Clouds,dailyrainin,SoftwareType,DateUTC
2013-03-03 00:02:00,31.0,23.0,29.74,NNE,17,1.0,11.0,73,0.00,,,0.00,,2013-03-03 05:02:00,
2013-03-03 00:12:00,31.0,23.0,29.74,NNE,17,1.0,11.0,73,0.00,,,0.00,,2013-03-03 05:12:00,
2013-03-03 00:22:00,30.0,22.0,29.74,North,0,0.0,6.0,73,0.00,,,0.00,,2013-03-03 05:22:00,
2013-03-03 00:32:00,30.0,23.0,29.74,North,0,0.0,4.0,74,0.00,,,0.00,,2013-03-03 05:32:00,
2013-03-03 00:42:00,30.0,23.0,29.74,North,0,0.0,4.0,74,0.00,,,0.00,,2013-03-03 05:42:00,
2013-03-03 00:52:00,30.0,23.0,29.75,North,0,0.0,4.0,75,0.00,,,0.00,,2013-03-03 05:52:00,
2013-03-03 01:02:00,30.0,23.0,29.74,North,0,0.0,4.0,75,0.00,,,0.00,,2013-03-03 06:02:00,
2013-03-03 01:11:00,30.0,23.0,29.74,North,0,0.0,4.0,75,0.00,,,0.00,,2013-03-03 06:11:00,
2013-03-03 01:21:00,30.0,23.0,29.75,North,0,0.0,5.0,76,0.00,,,0.00,,2013-03-03 06:21:00,
2013-03-03 01:32:00,29.0,22.0,29.74,North,0,0.0,6.0,76,0.00,,,0.00,,2013-03-03 06:32:00,
2013-03-03 01:42:00,29.0,22.0,29.74,North,0,0.0,6.0,76,0.00,,,0.00,,2013-03-03 06:42:00,
2013-03-03 01:52:00,29.0,22.0,29.74,North,0,0.0,5.0,76,0.00,,,0.00,,2013-03-03 06:52:00,
2013-03-03 02:01:00,29.0,23.0,29.74,North,0,0.0,3.0,77,0.00,,,0.00,,2013-03-03 07:01:00,
2013-03-03 02:11:00,29.0,23.0,29.74,North,0,0.0,3.0,77,0.00,,,0.00,,2013-03-03 07:11:00,
2013-03-03 02:21:00,29.0,23.0,29.74,NNE,24,1.0,7.0,78,0.00,,,0.00,,2013-03-03 07:21:00,
2013-03-03 02:32:00,29.0,23.0,29.74,North,0,0.0,7.0,78,0.00,,,0.00,,2013-03-03 07:32:00,
2013-03-03 02:42:00,29.0,23.0,29.74,North,0,0.0,7.0,78,0.00,,,0.00,,2013-03-03 07:42:00,
2013-03-03 02:52:00,29.0,23.0,29.73,North,0,0.0,5.0,77,0.00,,,0.00,,2013-03-03 07:52:00,
2013-03-03 03:01:00,29.0,23.0,29.72,North,0,0.0,4.0,77,0.00,,,0.00,,2013-03-03 08:01:00,
2013-03-03 03:11:00,29.0,23.0,29.72,North,0,0.0,4.0,77,0.00,,,0.00,,2013-03-03 08:11:00,
2013-03-03 03:21:00,29.0,22.0,29.72,NE,43,1.0,9.0,75,0.00,,,0.00,,2013-03-03 08:21:00,
2013-03-03 03:31:00,29.0,22.0,29.72,North,0,0.0,9.0,74,0.00,,,0.00,,2013-03-03 08:31:00,
2013-03-03 03:42:00,29.0,22.0,29.72,North,0,0.0,9.0,74,0.00,,,0.00,,2013-03-03 08:42:00,
2013-03-03 03:54:00,29.0,22.0,29.72,North,0,0.0,15.0,74,0.00,,,0.00,,2013-03-03 08:54:00,
2013-03-03 04:01:00,28.0,21.0,29.72,North,0,0.0,9.0,74,0.00,,,0.00,,2013-03-03 09:01:00,
2013-03-03 04:11:00,28.0,21.0,29.72,North,0,0.0,9.0,74,0.00,,,0.00,,2013-03-03 09:11:00,
2013-03-03 04:21:00,28.0,21.0,29.73,North,360,1.0,6.0,74,0.00,,,0.00,,2013-03-03 09:21:00,
2013-03-03 04:32:00,28.0,21.0,29.73,North,0,0.0,6.0,75,0.00,,,0.00,,2013-03-03 09:32:00,
2013-03-03 04:42:00,28.0,21.0,29.73,North,0,0.0,6.0,75,0.00,,,0.00,,2013-03-03 09:42:00,
2013-03-03 04:52:00,28.0,21.0,29.73,North,0,0.0,7.0,74,0.00,,,0.00,,2013-03-03 09:52:00,
2013-03-03 05:01:00,27.0,19.0,29.74,NNE,33,2.0,11.0,72,0.00,,,0.00,,2013-03-03 10:01:00,
2013-03-03 05:11:00,27.0,19.0,29.74,NNE,33,2.0,11.0,72,0.00,,,0.00,,2013-03-03 10:11:00,
2013-03-03 05:21:00,27.0,19.0,29.74,North,0,0.0,5.0,71,0.00,,,0.00,,2013-03-03 10:21:00,
2013-03-03 05:32:00,27.0,19.0,29.74,North,0,0.0,4.0,71,0.00,,,0.00,,2013-03-03 10:32:00,
2013-03-03 05:42:00,27.0,19.0,29.74,North,0,0.0,4.0,71,0.00,,,0.00,,2013-03-03 10:42:00,
2013-03-03 05:52:00,27.0,19.0,29.74,North,0,0.0,4.0,72,0.00,,,0.00,,2013-03-03 10:52:00,
2013-03-03 06:01:00,26.0,18.0,29.74,North,0,0.0,9.0,72,0.00,,,0.00,,2013-03-03 11:01:00,
2013-03-03 06:11:00,26.0,18.0,29.74,North,0,0.0,9.0,72,0.00,,,0.00,,2013-03-03 11:11:00,
2013-03-03 06:22:00,26.0,18.0,29.75,North,0,0.0,7.0,72,0.00,,,0.00,,2013-03-03 11:22:00,
2013-03-03 06:32:00,27.0,19.0,29.74,North,0,0.0,4.0,72,0.00,,,0.00,,2013-03-03 11:32:00,
2013-03-03 06:42:00,27.0,19.0,29.74,North,0,0.0,4.0,72,0.00,,,0.00,,2013-03-03 11:42:00,
2013-03-03 06:53:00,27.0,20.0,29.74,NNE,13,1.0,5.0,73,0.00,,,0.00,,2013-03-03 11:53:00,
2013-03-03 07:01:00,27.0,20.0,29.74,North,0,0.0,6.0,73,0.00,,,0.00,,2013-03-03 12:01:00,
2013-03-03 07:11:00,27.0,20.0,29.74,North,0,0.0,6.0,73,0.00,,,0.00,,2013-03-03 12:11:00,
2013-03-03 07:21:00,27.0,19.0,29.74,North,0,0.0,9.0,72,0.00,,,0.00,,2013-03-03 12:21:00,
2013-03-03 07:32:00,27.0,19.0,29.75,North,0,0.0,6.0,72,0.00,,,0.00,,2013-03-03 12:32:00,
2013-03-03 07:43:00,27.0,19.0,29.75,North,0,0.0,6.0,72,0.00,,,0.00,,2013-03-03 12:43:00,
2013-03-03 07:53:00,27.0,19.0,29.75,North,0,0.0,7.0,72,0.00,,,0.00,,2013-03-03 12:53:00,
2013-03-03 08:01:00,28.0,20.0,29.75,NNE,15,1.0,11.0,72,0.00,,,0.00,,2013-03-03 13:01:00,
2013-03-03 08:11:00,28.0,20.0,29.75,NNE,15,1.0,11.0,72,0.00,,,0.00,,2013-03-03 13:11:00,
2013-03-03 08:22:00,28.0,20.0,29.75,North,0,0.0,12.0,72,0.00,,,0.00,,2013-03-03 13:22:00,
2013-03-03 08:32:00,28.0,20.0,29.75,NNE,28,1.0,12.0,73,0.00,,,0.00,,2013-03-03 13:32:00,
2013-03-03 08:42:00,28.0,20.0,29.75,NNE,28,1.0,12.0,73,0.00,,,0.00,,2013-03-03 13:42:00,
2013-03-03 08:52:00,28.0,20.0,29.76,NNE,14,2.0,10.0,72,0.00,,,0.00,,2013-03-03 13:52:00,
2013-03-03 09:02:00,28.0,20.0,29.75,ENE,71,1.0,6.0,72,0.00,,,0.00,,2013-03-03 14:02:00,
2013-03-03 09:11:00,28.0,20.0,29.75,ENE,71,1.0,6.0,72,0.00,,,0.00,,2013-03-03 14:11:00,
2013-03-03 09:21:00,29.0,20.0,29.75,North,0,0.0,9.0,68,0.00,,,0.00,,2013-03-03 14:21:00,
2013-03-03 09:32:00,29.0,19.0,29.75,North,0,0.0,9.0,67,0.00,,,0.00,,2013-03-03 14:32:00,
2013-03-03 09:42:00,29.0,19.0,29.75,North,0,0.0,9.0,67,0.00,,,0.00,,2013-03-03 14:42:00,
2013-03-03 09:52:00,29.0,19.0,29.75,NNW,330,1.0,6.0,65,0.00,,,0.00,,2013-03-03 14:52:00,
2013-03-03 10:02:00,29.0,19.0,29.75,NNE,19,2.0,7.0,65,0.00,,,0.00,,2013-03-03 15:02:00,
2013-03-03 10:11:00,29.0,19.0,29.75,NNE,19,2.0,7.0,65,0.00,,,0.00,,2013-03-03 15:11:00,
2013-03-03 10:22:00,30.0,19.0,29.75,NNE,13,2.0,11.0,64,0.00,,,0.00,,2013-03-03 15:22:00,
2013-03-03 10:32:00,30.0,19.0,29.75,North,354,1.0,11.0,64,0.00,,,0.00,,2013-03-03 15:32:00,
2013-03-03 10:42:00,30.0,19.0,29.75,North,354,1.0,11.0,64,0.00,,,0.00,,2013-03-03 15:42:00,
2013-03-03 10:52:00,30.0,19.0,29.75,North,6,4.0,11.0,64,0.00,,,0.00,,2013-03-03 15:52:00,
2013-03-03 11:01:00,31.0,20.0,29.74,ENE,67,1.0,10.0,63,0.00,,,0.00,,2013-03-03 16:01:00,
2013-03-03 11:12:00,31.0,20.0,29.74,ENE,67,1.0,10.0,63,0.00,,,0.00,,2013-03-03 16:12:00,
2013-03-03 11:22:00,31.0,20.0,29.74,NNE,18,2.0,11.0,63,0.00,,,0.00,,2013-03-03 16:22:00,
2013-03-03 11:32:00,32.0,21.0,29.74,North,0,0.0,10.0,63,0.00,,,0.00,,2013-03-03 16:32:00,
2013-03-03 11:42:00,32.0,21.0,29.74,North,0,0.0,10.0,63,0.00,,,0.00,,2013-03-03 16:42:00,
2013-03-03 11:52:00,33.0,22.0,29.74,North,6,1.0,9.0,63,0.00,,,0.00,,2013-03-03 16:52:00,
2013-03-03 12:01:00,34.0,22.0,29.74,North,0,0.0,11.0,62,0.00,,,0.00,,2013-03-03 17:01:00,
2013-03-03 12:11:00,33.0,21.0,29.73,North,0,0.0,10.0,60,0.00,,,0.00,,2013-03-03 17:11:00,
2013-03-03 12:22:00,33.0,21.0,29.73,North,0,0.0,10.0,60,0.00,,,0.00,,2013-03-03 17:22:00,
2013-03-03 12:32:00,34.0,22.0,29.73,NNE,24,1.0,10.0,62,0.00,,,0.00,,2013-03-03 17:32:00,
2013-03-03 12:42:00,34.0,22.0,29.73,NNE,24,1.0,10.0,62,0.00,,,0.00,,2013-03-03 17:42:00,
2013-03-03 12:52:00,34.0,21.0,29.72,NNE,12,2.0,13.0,59,0.00,,,0.00,,2013-03-03 17:52:00,
2013-03-03 13:02:00,33.0,21.0,29.72,North,7,1.0,15.0,60,0.00,,,0.00,,2013-03-03 18:02:00,
2013-03-03 13:11:00,33.0,21.0,29.72,North,7,1.0,15.0,60,0.00,,,0.00,,2013-03-03 18:11:00,
2013-03-03 13:21:00,33.0,21.0,29.71,North,2,2.0,12.0,61,0.00,,,0.00,,2013-03-03 18:21:00,
2013-03-03 13:32:00,34.0,22.0,29.71,North,0,0.0,14.0,62,0.00,,,0.00,,2013-03-03 18:32:00,
2013-03-03 13:42:00,34.0,22.0,29.71,North,0,0.0,14.0,62,0.00,,,0.00,,2013-03-03 18:42:00,
2013-03-03 13:52:00,34.0,21.0,29.70,North,5,1.0,11.0,59,0.00,,,0.00,,2013-03-03 18:52:00,
2013-03-03 14:02:00,36.0,23.0,29.70,NNW,340,1.0,11.0,59,0.00,,,0.00,,2013-03-03 19:02:00,
2013-03-03 14:11:00,36.0,23.0,29.70,NNE,13,2.0,16.0,58,0.00,,,0.00,,2013-03-03 19:11:00,
2013-03-03 14:22:00,36.0,23.0,29.70,NNE,13,2.0,16.0,58,0.00,,,0.00,,2013-03-03 19:22:00,
2013-03-03 14:32:00,36.0,23.0,29.70,North,0,0.0,11.0,59,0.00,,,0.00,,2013-03-03 19:32:00,
2013-03-03 14:42:00,36.0,23.0,29.70,North,0,0.0,11.0,59,0.00,,,0.00,,2013-03-03 19:42:00,
2013-03-03 14:52:00,36.0,23.0,29.70,North,354,2.0,9.0,59,0.00,,,0.00,,2013-03-03 19:52:00,
2013-03-03 15:01:00,36.0,23.0,29.70,North,8,2.0,11.0,59,0.00,,,0.00,,2013-03-03 20:01:00,
2013-03-03 15:11:00,36.0,23.0,29.70,North,8,2.0,11.0,59,0.00,,,0.00,,2013-03-03 20:11:00,
2013-03-03 15:21:00,36.0,23.0,29.69,NNE,18,3.0,11.0,59,0.00,,,0.00,,2013-03-03 20:21:00,
2013-03-03 15:32:00,35.0,23.0,29.70,North,0,0.0,6.0,61,0.00,,,0.00,,2013-03-03 20:32:00,
2013-03-03 15:42:00,35.0,23.0,29.70,North,0,0.0,6.0,61,0.00,,,0.00,,2013-03-03 20:42:00,
2013-03-03 15:53:00,35.0,23.0,29.70,North,10,2.0,17.0,61,0.00,,,0.00,,2013-03-03 20:53:00,
2013-03-03 16:02:00,35.0,23.0,29.70,North,355,1.0,9.0,62,0.00,,,0.00,,2013-03-03 21:02:00,
2013-03-03 16:11:00,35.0,23.0,29.70,North,355,1.0,9.0,62,0.00,,,0.00,,2013-03-03 21:11:00,
2013-03-03 16:22:00,34.0,22.0,29.70,North,0,0.0,10.0,62,0.00,,,0.00,,2013-03-03 21:22:00,
2013-03-03 16:32:00,34.0,22.0,29.70,NNE,21,2.0,11.0,62,0.00,,,0.00,,2013-03-03 21:32:00,
2013-03-03 16:42:00,34.0,22.0,29.70,NNE,21,2.0,11.0,62,0.00,,,0.00,,2013-03-03 21:42:00,
2013-03-03 16:52:00,34.0,22.0,29.70,NE,43,1.0,9.0,62,0.00,,,0.00,,2013-03-03 21:52:00,
2013-03-03 17:02:00,34.0,22.0,29.70,NNE,23,1.0,8.0,62,0.00,,,0.00,,2013-03-03 22:02:00,
2013-03-03 17:11:00,34.0,22.0,29.70,NNE,23,1.0,8.0,62,0.00,,,0.00,,2013-03-03 22:11:00,
2013-03-03 17:22:00,34.0,22.0,29.70,NNE,24,1.0,8.0,62,0.00,,,0.00,,2013-03-03 22:22:00,
2013-03-03 17:32:00,34.0,22.0,29.71,North,0,0.0,10.0,62,0.00,,,0.00,,2013-03-03 22:32:00,
2013-03-03 17:42:00,34.0,22.0,29.71,North,0,0.0,10.0,62,0.00,,,0.00,,2013-03-03 22:42:00,
2013-03-03 17:52:00,33.0,22.0,29.72,NNE,29,2.0,9.0,63,0.00,,,0.00,,2013-03-03 22:52:00,
2013-03-03 18:02:00,33.0,23.0,29.72,NNW,348,1.0,8.0,65,0.00,,,0.00,,2013-03-03 23:02:00,
2013-03-03 18:11:00,33.0,23.0,29.72,NNW,348,1.0,8.0,65,0.00,,,0.00,,2013-03-03 23:11:00,
2013-03-03 18:21:00,33.0,23.0,29.72,NE,46,1.0,10.0,66,0.00,,,0.00,,2013-03-03 23:21:00,
2013-03-03 18:32:00,33.0,23.0,29.72,NNE,22,1.0,7.0,67,0.00,,,0.00,,2013-03-03 23:32:00,
2013-03-03 18:42:00,33.0,23.0,29.72,NNE,22,1.0,7.0,67,0.00,,,0.00,,2013-03-03 23:42:00,
2013-03-03 18:52:00,32.0,22.0,29.73,NNE,26,1.0,11.0,67,0.00,,,0.00,,2013-03-03 23:52:00,
2013-03-03 19:02:00,32.0,22.0,29.73,NNW,347,1.0,9.0,67,0.00,,,0.00,,2013-03-04 00:02:00,
2013-03-03 19:11:00,32.0,22.0,29.73,NNW,347,1.0,9.0,67,0.00,,,0.00,,2013-03-04 00:11:00,
2013-03-03 19:21:00,32.0,23.0,29.74,NNE,19,1.0,7.0,68,0.00,,,0.00,,2013-03-04 00:21:00,
2013-03-03 19:32:00,31.0,22.0,29.75,North,0,0.0,12.0,69,0.00,,,0.00,,2013-03-04 00:32:00,
2013-03-03 19:42:00,31.0,22.0,29.75,North,0,0.0,12.0,69,0.00,,,0.00,,2013-03-04 00:42:00,
2013-03-03 19:52:00,31.0,23.0,29.75,North,0,0.0,6.0,71,0.00,,,0.00,,2013-03-04 00:52:00,
2013-03-03 20:01:00,31.0,23.0,29.75,North,353,1.0,5.0,73,0.00,,,0.00,,2013-03-04 01:01:00,
2013-03-03 20:12:00,31.0,23.0,29.75,North,353,1.0,5.0,73,0.00,,,0.00,,2013-03-04 01:12:00,
2013-03-03 20:21:00,31.0,23.0,29.75,North,0,0.0,5.0,73,0.00,,,0.00,,2013-03-04 01:21:00,
2013-03-03 20:32:00,31.0,24.0,29.75,North,11,1.0,6.0,74,0.00,,,0.00,,2013-03-04 01:32:00,
2013-03-03 20:42:00,31.0,24.0,29.75,North,11,1.0,6.0,74,0.00,,,0.00,,2013-03-04 01:42:00,
2013-03-03 20:52:00,31.0,24.0,29.76,NNE,20,1.0,7.0,74,0.00,,,0.00,,2013-03-04 01:52:00,
2013-03-03 21:01:00,31.0,24.0,29.75,North,0,0.0,5.0,74,0.00,,,0.00,,2013-03-04 02:01:00,
2013-03-03 21:11:00,31.0,24.0,29.76,NNE,26,1.0,7.0,74,0.00,,,0.00,,2013-03-04 02:11:00,
2013-03-03 21:22:00,31.0,24.0,29.76,NNE,26,1.0,7.0,74,0.00,,,0.00,,2013-03-04 02:22:00,
2013-03-03 21:32:00,31.0,24.0,29.77,North,0,0.0,11.0,74,0.00,,,0.00,,2013-03-04 02:32:00,
2013-03-03 21:42:00,31.0,24.0,29.77,North,0,0.0,11.0,74,0.00,,,0.00,,2013-03-04 02:42:00,
2013-03-03 21:53:00,31.0,24.0,29.76,North,0,0.0,7.0,74,0.00,,,0.00,,2013-03-04 02:53:00,
2013-03-03 22:02:00,31.0,24.0,29.76,North,0,0.0,10.0,74,0.00,,,0.00,,2013-03-04 03:02:00,
2013-03-03 22:11:00,31.0,24.0,29.76,North,0,0.0,10.0,74,0.00,,,0.00,,2013-03-04 03:11:00,
2013-03-03 22:22:00,31.0,24.0,29.76,North,0,0.0,9.0,74,0.00,,,0.00,,2013-03-04 03:22:00,
2013-03-03 22:32:00,31.0,24.0,29.76,North,0,0.0,5.0,74,0.00,,,0.00,,2013-03-04 03:32:00,
2013-03-03 22:42:00,31.0,24.0,29.76,North,0,0.0,7.0,74,0.00,,,0.00,,2013-03-04 03:42:00,
2013-03-03 22:53:00,31.0,24.0,29.76,North,0,0.0,7.0,74,0.00,,,0.00,,2013-03-04 03:53:00,
2013-03-03 23:01:00,31.0,24.0,29.76,NNE,24,1.0,7.0,74,0.00,,,0.00,,2013-03-04 04:01:00,
2013-03-03 23:11:00,31.0,24.0,29.76,NNE,24,1.0,7.0,74,0.00,,,0.00,,2013-03-04 04:11:00,
2013-03-03 23:22:00,31.0,23.0,29.77,NNE,28,2.0,11.0,72,0.00,,,0.00,,2013-03-04 04:22:00,
2013-03-03 23:32:00,31.0,22.0,29.77,North,7,2.0,15.0,69,0.00,,,0.00,,2013-03-04 04:32:00,
2013-03-03 23:42:00,31.0,22.0,29.77,North,7,2.0,15.0,69,0.00,,,0.00,,2013-03-04 04:42:00,
2013-03-03 23:52:00,31.0,22.0,29.77,NNE,14,2.0,14.0,68,0.00,,,0.00,,2013-03-04 04:52:00,